EXM02 EGHH-EGHH

Flight info

Callsign EXM02
Flight time 0h 23m
Altitude 3000
Route EGHH
Aircraft DA42/L-V/N

Departure

Time 2026-05-07 17:57
Airport Bournemouth Airport (EGHH)

Arrival

Time 2026-05-07 18:21
Airport Bournemouth Airport (EGHH)
Time Latitude Longitude Altitude Speed Heading
2026-05-07 17:40 50.78409 -1.83274 40 ft 0 kts 264°
2026-05-07 17:49 50.78409 -1.83277 40 ft 1 kts 263°
2026-05-07 17:50 50.78382 -1.83291 41 ft 6 kts 178°
2026-05-07 17:50 50.78362 -1.83350 41 ft 11 kts 269°
2026-05-07 17:50 50.78386 -1.83496 41 ft 15 kts 294°
2026-05-07 17:50 50.78414 -1.83657 40 ft 16 kts 283°
2026-05-07 17:51 50.78441 -1.83828 40 ft 15 kts 285°
2026-05-07 17:51 50.78466 -1.83994 40 ft 16 kts 284°
2026-05-07 17:51 50.78443 -1.84144 40 ft 14 kts 230°
2026-05-07 17:51 50.78385 -1.84263 39 ft 14 kts 231°
2026-05-07 17:52 50.78339 -1.84393 38 ft 13 kts 247°
2026-05-07 17:52 50.78294 -1.84527 38 ft 16 kts 234°
2026-05-07 17:52 50.78213 -1.84647 38 ft 15 kts 215°
2026-05-07 17:52 50.78140 -1.84745 38 ft 15 kts 236°
2026-05-07 17:53 50.78125 -1.84887 38 ft 10 kts 239°
2026-05-07 17:53 50.78059 -1.84936 38 ft 8 kts 200°
2026-05-07 17:53 50.78007 -1.84965 38 ft 0 kts 199°
2026-05-07 17:56 50.77994 -1.84973 37 ft 10 kts 199°
2026-05-07 17:56 50.77917 -1.85015 39 ft 10 kts 198°
2026-05-07 17:56 50.77889 -1.84977 39 ft 5 kts 72°
2026-05-07 17:56 50.77898 -1.84919 39 ft 28 kts 75°
2026-05-07 17:57 50.78004 -1.84287 42 ft 84 kts 76°
2026-05-07 17:57 50.78120 -1.83663 183 ft 92 kts 77°
2026-05-07 17:57 50.78385 -1.82323 583 ft 100 kts 77°
2026-05-07 17:57 50.78653 -1.81569 861 ft 101 kts 45°
2026-05-07 17:58 50.79274 -1.81222 1113 ft 108 kts
2026-05-07 17:58 50.80033 -1.81264 1469 ft 111 kts 356°
2026-05-07 17:58 50.80803 -1.81359 1796 ft 112 kts 360°
2026-05-07 17:58 50.81590 -1.81389 2061 ft 114 kts
2026-05-07 17:59 50.82394 -1.81424 2366 ft 118 kts
2026-05-07 17:59 50.83224 -1.81458 2691 ft 119 kts
2026-05-07 17:59 50.84047 -1.81488 2987 ft 118 kts
2026-05-07 17:59 50.84929 -1.81508 3014 ft 135 kts
2026-05-07 18:00 50.85898 -1.81520 3026 ft 140 kts
2026-05-07 18:00 50.86875 -1.81556 3057 ft 142 kts
2026-05-07 18:00 50.87899 -1.81590 3036 ft 151 kts
2026-05-07 18:00 50.88958 -1.81612 2994 ft 153 kts
2026-05-07 18:01 50.90025 -1.81611 2975 ft 154 kts
2026-05-07 18:01 50.91085 -1.81617 2940 ft 154 kts
2026-05-07 18:01 50.92131 -1.81591 2895 ft 145 kts
2026-05-07 18:01 50.93101 -1.81465 2914 ft 140 kts
2026-05-07 18:02 50.95044 -1.81373 2988 ft 140 kts
2026-05-07 18:02 50.96022 -1.81377 2978 ft 143 kts
2026-05-07 18:02 50.97026 -1.81382 2954 ft 144 kts
2026-05-07 18:03 50.98019 -1.81390 2948 ft 141 kts
2026-05-07 18:03 50.99001 -1.81396 2940 ft 141 kts
2026-05-07 18:03 50.99970 -1.81482 2963 ft 137 kts 356°
2026-05-07 18:03 51.00838 -1.81999 2971 ft 136 kts 318°
2026-05-07 18:04 51.01256 -1.83290 2966 ft 132 kts 271°
2026-05-07 18:04 51.01111 -1.84711 2939 ft 131 kts 251°
2026-05-07 18:04 51.00852 -1.86088 2973 ft 129 kts 253°
2026-05-07 18:04 51.00622 -1.87398 3162 ft 118 kts 250°
2026-05-07 18:05 51.00405 -1.88588 3410 ft 108 kts 251°
2026-05-07 18:05 51.00195 -1.89712 3591 ft 104 kts 250°
2026-05-07 18:05 50.99895 -1.90704 3749 ft 96 kts 226°
2026-05-07 18:05 50.99328 -1.91134 3895 ft 91 kts 186°
2026-05-07 18:06 50.98695 -1.91171 4068 ft 90 kts 180°
2026-05-07 18:06 50.98091 -1.91374 4233 ft 91 kts 207°
2026-05-07 18:06 50.97535 -1.91899 4356 ft 95 kts 211°
2026-05-07 18:06 50.96961 -1.92450 4494 ft 96 kts 210°
2026-05-07 18:07 50.96380 -1.93040 4577 ft 103 kts 212°
2026-05-07 18:07 50.95719 -1.93614 4595 ft 111 kts 199°
2026-05-07 18:07 50.94945 -1.93573 4593 ft 116 kts 159°
2026-05-07 18:07 50.94192 -1.93061 4533 ft 124 kts 155°
2026-05-07 18:08 50.93372 -1.92499 4405 ft 128 kts 156°
2026-05-07 18:08 50.92534 -1.92054 4275 ft 129 kts 174°
2026-05-07 18:08 50.91687 -1.92443 4132 ft 131 kts 216°
2026-05-07 18:08 50.91192 -1.93664 3959 ft 135 kts 248°
2026-05-07 18:09 50.90909 -1.95067 3795 ft 133 kts 251°
2026-05-07 18:09 50.90639 -1.96472 3622 ft 134 kts 249°
2026-05-07 18:09 50.90619 -1.97930 3462 ft 136 kts 289°
2026-05-07 18:09 50.91235 -1.99061 3264 ft 139 kts 331°
2026-05-07 18:10 50.91844 -1.99335 3162 ft 137 kts
2026-05-07 18:10 50.92709 -1.98857 3027 ft 131 kts 45°
2026-05-07 18:10 50.93041 -1.97640 2989 ft 121 kts 98°
2026-05-07 18:10 50.92665 -1.96513 2980 ft 118 kts 146°
2026-05-07 18:11 50.91890 -1.96276 2996 ft 119 kts 194°
2026-05-07 18:11 50.91232 -1.97062 3000 ft 123 kts 237°
2026-05-07 18:11 50.90948 -1.98359 2980 ft 128 kts 251°
2026-05-07 18:11 50.90697 -1.99773 2963 ft 135 kts 250°
2026-05-07 18:12 50.90447 -2.01215 2989 ft 135 kts 251°
2026-05-07 18:12 50.90185 -2.02637 2996 ft 138 kts 249°
2026-05-07 18:12 50.89911 -2.04108 2989 ft 139 kts 246°
2026-05-07 18:12 50.89295 -2.05206 2987 ft 133 kts 201°
2026-05-07 18:13 50.88400 -2.05445 2999 ft 130 kts 181°
2026-05-07 18:13 50.87478 -2.05512 2994 ft 134 kts 180°
2026-05-07 18:13 50.86544 -2.05572 2989 ft 134 kts 180°
2026-05-07 18:13 50.85615 -2.05634 2992 ft 133 kts 180°
2026-05-07 18:14 50.84690 -2.05699 2998 ft 134 kts 180°
2026-05-07 18:14 50.83761 -2.05770 2988 ft 135 kts 180°
2026-05-07 18:14 50.82830 -2.05838 2992 ft 133 kts 180°
2026-05-07 18:14 50.81897 -2.05898 2996 ft 134 kts 180°
2026-05-07 18:15 50.80969 -2.05964 2933 ft 135 kts 180°
2026-05-07 18:15 50.80213 -2.06014 2808 ft 136 kts 180°
2026-05-07 18:15 50.79268 -2.06081 2598 ft 135 kts 180°
2026-05-07 18:15 50.78343 -2.06149 2397 ft 132 kts 180°
2026-05-07 18:16 50.77427 -2.06219 2211 ft 129 kts 180°
2026-05-07 18:16 50.76609 -2.05941 2071 ft 121 kts 143°
2026-05-07 18:16 50.76171 -2.04882 2006 ft 109 kts 112°
2026-05-07 18:16 50.75937 -2.03779 2002 ft 107 kts 110°
2026-05-07 18:17 50.75703 -2.02649 2003 ft 108 kts 110°
2026-05-07 18:17 50.75491 -2.01510 2000 ft 111 kts 99°
2026-05-07 18:17 50.75456 -2.00309 1989 ft 110 kts 84°
2026-05-07 18:17 50.75598 -1.99122 1907 ft 109 kts 83°
2026-05-07 18:18 50.75755 -1.97994 1761 ft 99 kts 81°
2026-05-07 18:18 50.75915 -1.96951 1630 ft 97 kts 81°
2026-05-07 18:18 50.76073 -1.95929 1510 ft 98 kts 80°
2026-05-07 18:18 50.76243 -1.94856 1358 ft 101 kts 79°
2026-05-07 18:19 50.76419 -1.93791 1219 ft 99 kts 80°
2026-05-07 18:19 50.76582 -1.92810 1095 ft 101 kts 80°
2026-05-07 18:19 50.76758 -1.91729 949 ft 102 kts 80°
2026-05-07 18:19 50.76929 -1.90704 804 ft 93 kts 79°
2026-05-07 18:20 50.77097 -1.89741 675 ft 91 kts 79°
2026-05-07 18:20 50.77254 -1.88772 554 ft 92 kts 79°
2026-05-07 18:20 50.77423 -1.87789 417 ft 92 kts 79°
2026-05-07 18:20 50.77582 -1.86819 291 ft 90 kts 79°
2026-05-07 18:21 50.77740 -1.85867 167 ft 92 kts 79°
2026-05-07 18:21 50.77903 -1.84895 49 ft 89 kts 73°
2026-05-07 18:21 50.78032 -1.84136 37 ft 44 kts 77°
2026-05-07 18:21 50.78065 -1.83920 39 ft 4 kts 30°
2026-05-07 18:22 50.78136 -1.83932 40 ft 15 kts 342°
2026-05-07 18:22 50.78201 -1.83960 40 ft 12 kts 343°
2026-05-07 18:22 50.78209 -1.83964 40 ft 0 kts 346°
2026-05-07 18:22 50.78244 -1.83978 40 ft 14 kts 345°
2026-05-07 18:23 50.78349 -1.84021 40 ft 16 kts 352°
2026-05-07 18:23 50.78454 -1.84063 40 ft 16 kts 346°
2026-05-07 18:23 50.78563 -1.84108 40 ft 16 kts 345°
2026-05-07 18:23 50.78632 -1.84123 40 ft 0 kts 192°